Time,TemperatureF,DewpointF,PressureIn,WindDirection,WindDirectionDegrees,WindSpeedMPH,WindSpeedGustMPH,Humidity,HourlyPrecipIn,Conditions,Clouds,dailyrainin,SolarRadiationWatts/m^2,SoftwareType,DateUTC
2013-04-25 00:03:00,47.0,47.0,-100.00,WNW,296,5.0,12.0,100,0.00,,,0.25,0.000000,,2013-04-25 04:03:00,
2013-04-25 00:33:00,42.0,41.0,-100.00,NNE,17,7.0,20.0,96,0.00,,,0.25,0.000000,,2013-04-25 04:33:00,
2013-04-25 00:43:00,42.0,41.0,-100.00,NNE,17,7.0,20.0,96,0.00,,,0.25,0.000000,,2013-04-25 04:43:00,
2013-04-25 00:52:00,42.0,41.0,-100.00,NNE,17,7.0,20.0,96,0.00,,,0.25,0.000000,,2013-04-25 04:52:00,
2013-04-25 01:03:00,42.0,41.0,-100.00,NNE,17,7.0,20.0,96,0.00,,,0.25,0.000000,,2013-04-25 05:03:00,
2013-04-25 01:32:00,39.0,38.0,-100.00,North,353,5.0,13.0,98,0.00,,,0.25,0.000000,,2013-04-25 05:32:00,
2013-04-25 01:42:00,39.0,38.0,-100.00,North,353,5.0,13.0,98,0.00,,,0.25,0.000000,,2013-04-25 05:42:00,
2013-04-25 01:52:00,39.0,38.0,-100.00,North,353,5.0,13.0,98,0.00,,,0.25,0.000000,,2013-04-25 05:52:00,
2013-04-25 02:02:00,39.0,38.0,-100.00,North,353,5.0,13.0,98,0.00,,,0.25,0.000000,,2013-04-25 06:02:00,
2013-04-25 03:32:00,37.0,35.0,-100.00,North,9,5.0,14.0,94,-99.99,,,0.25,0.000000,,2013-04-25 07:32:00,
2013-04-25 03:42:00,37.0,35.0,-100.00,North,9,5.0,14.0,94,-99.99,,,0.25,0.000000,,2013-04-25 07:42:00,
2013-04-25 03:52:00,37.0,35.0,-100.00,North,9,5.0,14.0,94,-99.99,,,0.25,0.000000,,2013-04-25 07:52:00,
2013-04-25 04:02:00,37.0,35.0,-100.00,North,9,5.0,14.0,94,-99.99,,,0.25,0.000000,,2013-04-25 08:02:00,
2013-04-25 04:32:00,36.0,33.0,-100.00,NNE,16,7.0,16.0,89,0.00,,,0.25,0.000000,,2013-04-25 08:32:00,
2013-04-25 04:42:00,36.0,33.0,-100.00,NNE,16,7.0,16.0,89,0.00,,,0.25,0.000000,,2013-04-25 08:42:00,
2013-04-25 04:52:00,36.0,33.0,-100.00,NNE,16,7.0,16.0,89,0.00,,,0.25,0.000000,,2013-04-25 08:52:00,
2013-04-25 05:01:00,36.0,33.0,-100.00,NNE,16,7.0,16.0,89,0.00,,,0.25,0.000000,,2013-04-25 09:01:00,
2013-04-25 05:33:00,36.0,33.0,-100.00,NNE,21,4.0,12.0,87,0.00,,,0.25,0.000000,,2013-04-25 09:33:00,
2013-04-25 05:42:00,36.0,33.0,-100.00,NNE,21,4.0,12.0,87,0.00,,,0.25,0.000000,,2013-04-25 09:42:00,
2013-04-25 05:53:00,36.0,33.0,-100.00,NNE,21,4.0,12.0,87,0.00,,,0.25,0.000000,,2013-04-25 09:53:00,
2013-04-25 06:03:00,36.0,33.0,-100.00,NNE,21,4.0,12.0,87,0.00,,,0.25,0.000000,,2013-04-25 10:03:00,
2013-04-25 06:33:00,36.0,34.0,-100.00,North,2,6.0,13.0,92,0.00,,,0.25,0.000000,,2013-04-25 10:33:00,
2013-04-25 06:42:00,36.0,34.0,-100.00,North,2,6.0,13.0,92,0.00,,,0.25,0.000000,,2013-04-25 10:42:00,
2013-04-25 06:53:00,36.0,34.0,-100.00,North,2,6.0,13.0,92,0.00,,,0.25,0.000000,,2013-04-25 10:53:00,
2013-04-25 07:02:00,36.0,34.0,-100.00,North,2,6.0,13.0,92,0.00,,,0.25,0.000000,,2013-04-25 11:02:00,
2013-04-25 07:33:00,36.0,33.0,-100.00,North,356,5.0,12.0,90,0.00,,,0.25,15.000000,,2013-04-25 11:33:00,
2013-04-25 07:42:00,36.0,33.0,-100.00,North,356,5.0,12.0,90,0.00,,,0.25,15.000000,,2013-04-25 11:42:00,
2013-04-25 07:52:00,36.0,33.0,-100.00,North,356,5.0,12.0,90,0.00,,,0.25,15.000000,,2013-04-25 11:52:00,
2013-04-25 08:01:00,36.0,33.0,-100.00,North,356,5.0,12.0,90,0.00,,,0.25,15.000000,,2013-04-25 12:01:00,
2013-04-25 09:32:00,42.0,30.0,-100.00,North,354,6.0,14.0,61,-99.99,,,-99.99,393.000000,,2013-04-25 13:32:00,
2013-04-25 09:42:00,42.0,30.0,-100.00,North,354,6.0,14.0,61,-99.99,,,-99.99,393.000000,,2013-04-25 13:42:00,
2013-04-25 09:53:00,42.0,30.0,-100.00,North,354,6.0,14.0,61,-99.99,,,-99.99,393.000000,,2013-04-25 13:53:00,
2013-04-25 10:02:00,42.0,30.0,-100.00,North,354,6.0,14.0,61,-99.99,,,-99.99,393.000000,,2013-04-25 14:02:00,
2013-04-25 10:32:00,45.0,29.0,-100.00,NNW,335,4.0,11.0,54,0.00,,,-99.99,603.000000,,2013-04-25 14:32:00,
2013-04-25 10:42:00,45.0,29.0,-100.00,NNW,335,4.0,11.0,54,0.00,,,-99.99,603.000000,,2013-04-25 14:42:00,
2013-04-25 10:52:00,45.0,29.0,-100.00,NNW,335,4.0,11.0,54,0.00,,,-99.99,603.000000,,2013-04-25 14:52:00,
2013-04-25 11:02:00,45.0,29.0,-100.00,NNW,335,4.0,11.0,54,0.00,,,-99.99,603.000000,,2013-04-25 15:02:00,
2013-04-25 11:33:00,47.0,29.0,-100.00,North,2,5.0,10.0,50,0.00,,,0.25,746.000000,,2013-04-25 15:33:00,
2013-04-25 11:42:00,47.0,29.0,-100.00,North,2,5.0,10.0,50,0.00,,,0.25,746.000000,,2013-04-25 15:42:00,
2013-04-25 11:53:00,47.0,29.0,-100.00,North,2,5.0,10.0,50,0.00,,,0.25,746.000000,,2013-04-25 15:53:00,
2013-04-25 12:02:00,47.0,29.0,-100.00,North,2,5.0,10.0,50,0.00,,,0.25,746.000000,,2013-04-25 16:02:00,
2013-04-25 12:33:00,51.0,33.0,-100.00,North,349,4.0,11.0,49,0.00,,,-99.99,844.000000,,2013-04-25 16:33:00,
2013-04-25 12:43:00,51.0,33.0,-100.00,North,349,4.0,11.0,49,0.00,,,-99.99,844.000000,,2013-04-25 16:43:00,
2013-04-25 12:53:00,51.0,33.0,-100.00,North,349,4.0,11.0,49,0.00,,,-99.99,844.000000,,2013-04-25 16:53:00,
2013-04-25 13:02:00,51.0,33.0,-100.00,North,349,4.0,11.0,49,0.00,,,-99.99,844.000000,,2013-04-25 17:02:00,
2013-04-25 13:32:00,51.0,31.0,-100.00,West,277,5.0,11.0,47,0.00,,,0.25,889.000000,,2013-04-25 17:32:00,
2013-04-25 13:42:00,51.0,31.0,-100.00,West,277,5.0,11.0,47,0.00,,,0.25,889.000000,,2013-04-25 17:42:00,
2013-04-25 13:53:00,51.0,31.0,-100.00,West,277,5.0,11.0,47,0.00,,,0.25,889.000000,,2013-04-25 17:53:00,
2013-04-25 14:02:00,51.0,31.0,-100.00,West,277,5.0,11.0,47,0.00,,,0.25,889.000000,,2013-04-25 18:02:00,
2013-04-25 14:32:00,53.0,32.0,-100.00,West,265,6.0,10.0,44,0.00,,,0.25,879.000000,,2013-04-25 18:32:00,
2013-04-25 14:43:00,53.0,32.0,-100.00,West,265,6.0,10.0,44,0.00,,,0.25,879.000000,,2013-04-25 18:43:00,
2013-04-25 14:53:00,53.0,32.0,-100.00,West,265,6.0,10.0,44,0.00,,,0.25,879.000000,,2013-04-25 18:53:00,
2013-04-25 15:02:00,53.0,32.0,-100.00,West,265,6.0,10.0,44,0.00,,,0.25,879.000000,,2013-04-25 19:02:00,
2013-04-25 15:32:00,55.0,29.0,-100.00,SW,232,5.0,14.0,36,0.00,,,0.25,800.000000,,2013-04-25 19:32:00,
2013-04-25 15:42:00,55.0,29.0,-100.00,SW,232,5.0,14.0,36,0.00,,,0.25,800.000000,,2013-04-25 19:42:00,
2013-04-25 15:52:00,55.0,29.0,-100.00,SW,232,5.0,14.0,36,0.00,,,0.25,800.000000,,2013-04-25 19:52:00,
2013-04-25 16:02:00,55.0,29.0,-100.00,SW,232,5.0,14.0,36,0.00,,,0.25,800.000000,,2013-04-25 20:02:00,
2013-04-25 16:32:00,56.0,26.0,-100.00,West,275,5.0,11.0,31,0.00,,,0.25,694.000000,,2013-04-25 20:32:00,
2013-04-25 16:43:00,56.0,26.0,-100.00,West,275,5.0,11.0,31,0.00,,,0.25,694.000000,,2013-04-25 20:43:00,
2013-04-25 16:52:00,56.0,26.0,-100.00,West,275,5.0,11.0,31,0.00,,,0.25,694.000000,,2013-04-25 20:52:00,
2013-04-25 17:01:00,56.0,26.0,-100.00,West,275,5.0,11.0,31,0.00,,,0.25,694.000000,,2013-04-25 21:01:00,
2013-04-25 17:33:00,58.0,27.0,-100.00,West,270,5.0,10.0,30,0.00,,,0.25,531.000000,,2013-04-25 21:33:00,
2013-04-25 17:42:00,58.0,27.0,-100.00,West,270,5.0,10.0,30,0.00,,,0.25,531.000000,,2013-04-25 21:42:00,
2013-04-25 17:53:00,58.0,27.0,-100.00,West,270,5.0,10.0,30,0.00,,,0.25,531.000000,,2013-04-25 21:53:00,
2013-04-25 18:03:00,58.0,27.0,-100.00,West,270,5.0,10.0,30,0.00,,,0.25,531.000000,,2013-04-25 22:03:00,
2013-04-25 18:33:00,56.0,23.0,-100.00,SW,229,6.0,10.0,28,0.00,,,0.25,344.000000,,2013-04-25 22:33:00,
2013-04-25 18:42:00,56.0,23.0,-100.00,SW,229,6.0,10.0,28,0.00,,,0.25,344.000000,,2013-04-25 22:42:00,
2013-04-25 18:53:00,56.0,23.0,-100.00,SW,229,6.0,10.0,28,0.00,,,0.25,344.000000,,2013-04-25 22:53:00,
2013-04-25 19:02:00,56.0,23.0,-100.00,SW,229,6.0,10.0,28,0.00,,,0.25,344.000000,,2013-04-25 23:02:00,
2013-04-25 19:32:00,54.0,26.0,-100.00,SW,234,5.0,12.0,34,0.00,,,0.09,160.000000,,2013-04-25 23:32:00,
2013-04-25 19:42:00,54.0,26.0,-100.00,SW,234,5.0,12.0,34,0.00,,,0.09,160.000000,,2013-04-25 23:42:00,
2013-04-25 19:52:00,54.0,26.0,-100.00,SW,234,5.0,12.0,34,0.00,,,0.09,160.000000,,2013-04-25 23:52:00,
2013-04-25 20:01:00,54.0,26.0,-100.00,SW,234,5.0,12.0,34,0.00,,,0.09,160.000000,,2013-04-26 00:01:00,
2013-04-25 20:32:00,51.0,25.0,-100.00,SW,216,5.0,8.0,36,0.00,,,0.03,18.000000,,2013-04-26 00:32:00,
2013-04-25 20:42:00,51.0,25.0,-100.00,SW,216,5.0,8.0,36,0.00,,,0.03,18.000000,,2013-04-26 00:42:00,
2013-04-25 20:52:00,51.0,25.0,-100.00,SW,216,5.0,8.0,36,0.00,,,0.03,18.000000,,2013-04-26 00:52:00,
2013-04-25 21:01:00,51.0,25.0,-100.00,SW,216,5.0,8.0,36,0.00,,,0.03,18.000000,,2013-04-26 01:01:00,
2013-04-25 21:32:00,48.0,24.0,-100.00,SW,214,4.0,7.0,38,0.00,,,0.03,0.000000,,2013-04-26 01:32:00,
2013-04-25 21:42:00,48.0,24.0,-100.00,SW,214,4.0,7.0,38,0.00,,,0.03,0.000000,,2013-04-26 01:42:00,
2013-04-25 21:52:00,48.0,24.0,-100.00,SW,214,4.0,7.0,38,0.00,,,0.03,0.000000,,2013-04-26 01:52:00,
2013-04-25 22:02:00,48.0,24.0,-100.00,SW,214,4.0,7.0,38,0.00,,,0.03,0.000000,,2013-04-26 02:02:00,
2013-04-25 22:32:00,47.0,21.0,-100.00,SSW,210,4.0,6.0,36,0.00,,,0.00,0.000000,,2013-04-26 02:32:00,
2013-04-25 22:42:00,47.0,21.0,-100.00,SSW,210,4.0,6.0,36,0.00,,,0.00,0.000000,,2013-04-26 02:42:00,
2013-04-25 22:52:00,47.0,21.0,-100.00,SSW,210,4.0,6.0,36,0.00,,,0.00,0.000000,,2013-04-26 02:52:00,
2013-04-25 23:01:00,47.0,21.0,-100.00,SSW,210,4.0,6.0,36,0.00,,,0.00,0.000000,,2013-04-26 03:01:00,
2013-04-25 23:33:00,43.0,25.0,-100.00,South,169,1.0,5.0,48,0.00,,,0.00,0.000000,,2013-04-26 03:33:00,
2013-04-25 23:43:00,43.0,25.0,-100.00,South,169,1.0,5.0,48,0.00,,,0.00,0.000000,,2013-04-26 03:43:00,
2013-04-25 23:53:00,43.0,25.0,-100.00,South,169,1.0,5.0,48,0.00,,,0.00,0.000000,,2013-04-26 03:53:00,